www.pogodaiklimat.ru

Погода и климат >> Архив погоды >> Россия >> Чукотка >> Анадырь


АРХИВ ПОГОДЫ в Анадыре

Время (UTC), дата Ветер
(напр.,м/с)
 
Видим.   Явления Облачность Т
(С)
Тd
(С)
f
(%)
Тe
(С)
Тes
(С)
Комфортность P
(гПа)
Po
(гПа)
Тmin
(С)
Tmax
(С)
R
(мм)
R24
(мм)
S
(см)
09 19.04 З 3
{5}
50 км {ливн. осадки} 4/0
[Ci fib]
-9.1 -11.6 82 -15 -15 по сезону 1015.1 1007.1
12 19.04 СЗ 6
{7}
50 км {ливн. осадки} 3/0
[Ac trans Ci fib]
-13.1 -15.1 85 -22 -22 по сезону 1014.8 1006.6
15 19.04 СЗ 6
{9}
50 км 4/0
[Ac trans Ci fib]
-12.9 -14.9 85 -22 -22 по сезону 1014.5 1006.3
18 19.04 З 6
{8}
50 км 8/0
[Ac trans Ci fib]
-11.6 -13.9 83 -20 -20 по сезону 1014.6 1006.6 -13.2 0.0 33
21 19.04 СЗ 5
{7}
50 км 3/0
[Ac lent Ci fib]
-11.4 -14.2 80 -19 -17 по сезону 1015.7 1007.7
00 20.04 СЗ 3
{7}
50 км 3/0
[Ac trans]
-8.6 -11.0 83 -14 -9 по сезону 1006.9 1008.9
03 20.04 СЗ 3
{5}
50 км 6/0
[Ac trans]
-6.9 -9.4 82 -13 -10 по сезону 1017.3 1009.4
06 20.04 З 3
{5}
50 км 3/0
[Ac trans Ci fib]
-6.8 -9.7 80 -12 -12 по сезону 1017.6 1009.7 -5.5
09 20.04 Ю 1
{5}
50 км 9/1 600 м
[Sc Ac trans Ci fib]
-9.9 -12.5 81 -12 -12 по сезону 1018.1 1010.1
12 20.04 Ю 5
{6}
50 км 8/1 600 м
[Sc Ac trans Ci fib]
-11.2 -14.0 80 -19 -19 по сезону 1017.6 1009.6
15 20.04 Ю 5
{6}
50 км 9/0
[Ac trans Ci fib]
-11.3 -14.1 80 -19 -19 по сезону 1016.5 1008.5
18 20.04 З 3
{6}
20 км слаб. ливневой снег 9/9 600 м
[Cb cap]
-11.6 -13.6 85 -18 -17 по сезону 1016.6 1008.6 -11.6 0.2 34
21 20.04 СЗ 5
{7}
50 км {ливн. осадки} 9/9 600 м
[Sc]
-12.7 -15.4 80 -21 -21 по сезону 1016.9 1008.7 -12.9
00 21.04 СЗ 5
{8}
50 км {ливн. осадки} 3/0
[Ac lent]
-9.4 -12.9 76 -17 -14 по сезону 1017.3 1009.3
03 21.04 СЗ 9
{11}
50 км 1/1 600 м
[Cu hum]
-8.7 -13.6 68 -19 -18 по сезону 1017.2 1009.2
06 21.04 СЗ 10-11
{11}
50 км ясно -10.6 -14.2 75 -21 -21 прохладно 1017.6 1009.6 -8.7 0.0
09 21.04 СЗ 5
{11}
50 км 3/0
[Ci fib]
-15.2 -17.9 80 -24 -24 холодно 1019.1 1010.9
12 21.04 З 7
{8}
50 км ясно -17.8 -20.4 80 -29 -29 очень
холодно
1019.8 1011.5
15 21.04 З 7
{8}
50 км ясно -19.0 -21.6 80 -30 -30 очень
холодно
1019.8 1011.5
18 21.04 СЗ 7
{9}
50 км 3/3 600 м
[Sc]
-19.5 -22.1 80 -31 -31 опасность
обморожения
1020.1 1011.8 -19.7 32
21 21.04 СЗ 6
{9}
50 км 3/0
[Ac trans Ci fib]
-17.1 -20.5 75 -27 -25 холодно 1020.0 1011.8
00 22.04 СЗ 5
{8}
50 км 1/0
[Ci fib]
-12.8 -16.3 75 -21 -16 прохладно 1019.7 1011.5
03 22.04 СЗ 6
{10}
50 км 8/8 600 м
[Sc]
-11.1 -14.7 75 -20 -19 прохладно 1019.2 1011.2
06 22.04 СЗ 7
{9}
50 км 4/1 600 м
[Sc Ci fib]
-12.0 -14.7 80 -21 -21 прохладно 1019.3 1011.3 -10.7
09 22.04 С 2
{8}
50 км 6/0
[Ac trans Ci fib]
-12.3 -16.6 70 -17 -17 по сезону 1020.3 1012.3
12 22.04 СЗ 3
{5}
50 км 6/0
[Ci fib]
-15.9 -19.3 75 -23 -23 прохладно 1021.8 1013.6
15 22.04 СЗ 4
{11}
50 км 3/0
[Ci fib]
-15.1 -19.3 70 -23 -23 прохладно 1022.3 1014.1
18 22.04 СЗ 7
{11}
50 км 3/1 600 м
[Cb cap Ac lent Ci fib]
-20.9 -23.4 80 -33 -33 опасность
обморожения
1022.9 1014.6 -21.4 32
21 22.04 СЗ 6
{9}
50 км 3/0
[Ac lent Ci fib]
-18.0 -21.4 75 -28 -26 очень
холодно
1022.9 1014.6
00 23.04 СЗ 11
{13}
50 км 4/0
[Ac trans Ci fib]
-13.1 -16.6 75 -25 -25 очень
холодно
1021.9 1013.7
03 23.04 СЗ 12-14
{14}
50 км 3/0
[Ac trans Ci fib]
-11.8 -15.3 75 -24 -24 очень
холодно
1021.1 1013.1
06 23.04 СЗ 12-14
{15}
50 км 3/0
[Ci fib]
-12.5 -16.0 75 -25 -25 очень
холодно
1021.0 1013.0 -11.7
09 23.04 СЗ 9-11
{15}
50 км 3/0
[Ac trans]
-14.7 -17.4 80 -26 -26 очень
холодно
1022.2 1014.0
12 23.04 СЗ 7
{13}
50 км 3/0
[Ac trans]
-15.9 -19.3 75 -26 -26 холодно 1022.5 1014.3
15 23.04 СЗ 8
{9}
50 км 4/0
[Ac trans Ci fib]
-17.2 -19.8 80 -29 -29 очень
холодно
1022.1 1013.9
18 23.04 СЗ 7
{9}
50 км 3/0
[Ac trans Ci fib]
-18.4 -21.0 80 -30 -29 очень
холодно
1022.7 1014.4 -18.7 32
21 23.04 СЗ 7
{10}
50 км ясно -15.7 -18.4 80 -26 -25 холодно 1022.8 1014.6
00 24.04 СЗ 5
{8}
50 км 1/0
[Ci fib]
-12.9 -16.4 75 -21 -17 прохладно 1022.5 1014.3
03 24.04 СЗ 5
{7}
50 км 1/0
[Ci fib]
-10.8 -13.6 80 -19 -15 прохладно 1021.9 1013.9
06 24.04 СЗ 6
{7}
50 км 1/0
[Ci fib]
-11.1 -13.9 80 -20 -19 прохладно 1021.4 1013.4 -10.3
09 24.04 СЗ 5
{7}
50 км 1/0
[Ci fib]
-13.5 -16.2 80 -22 -22 холодно 1022.0 1013.8
12 24.04 СЗ 6
{6}
50 км ясно -15.8 -18.5 80 -26 -26 очень
холодно
1022.6 1014.4
15 24.04 СЗ 4
{5}
50 км ясно -15.5 -18.9 75 -23 -23 прохладно 1022.4 1014.2
18 24.04 СЗ 3
{5}
50 км ясно -16.2 -18.8 80 -23 -22 прохладно 1023.1 1014.9 -16.9 32
21 24.04 СЗ 4
{5}
50 км 1/0
[Ci fib]
-14.2 -17.7 75 -22 -18 прохладно 1023.4 1015.1
00 25.04 СЗ 1
{5}
50 км ясно -10.8 -15.2 70 -13 -2 по сезону 1023.6 1015.5
03 25.04 З 2
{3}
50 км ясно -8.5 -13.3 68 -13 -7 по сезону 1023.7 1015.6
06 25.04 ЮВ 1
{2}
50 км ясно -8.2 -12.8 69 -10 -9 по сезону 1023.6 1015.5 -6.7
09 25.04 ЮВ 4
{4}
50 км 3/0
[Ci fib]
-12.6 -14.6 85 -20 -20 прохладно 1024.2 1016.1
12 25.04 Ю 3
{5}
50 км 5/0
[Ci fib]
-12.8 -14.8 85 -19 -19 по сезону 1024.6 1016.3
15 25.04 ЮВ 5
{6}
50 км 5/0
[Ac lent Ci fib]
-13.1 -15.8 80 -21 -21 прохладно 1024.4 1016.1
18 25.04 ЮВ 5
{8}
50 км 9/0
[Ac trans Cs]
-12.4 -16.7 70 -20 -20 по сезону 1024.1 1016.0 -14.0 32
21 25.04 Ю 5
{7}
50 км 8/0
[Cs]
-7.8 -11.4 75 -15 -13 по сезону 1024.0 1015.9
00 26.04 Ю 7
{9}
50 км 5/0
[Ci fib]
-5.0 -9.5 71 -13 -11 по сезону 1023.6 1015.6
03 26.04 ЮВ 5
{10}
50 км 9/0
[Ac trans Cs]
-3.8 -7.5 75 -11 -8 по сезону 1022.6 1014.7

 

Местоположение метеостанции Анадырь (Чукотка, Россия): широта 64.78 долгота 177.50 высота над уровнем моря 61 м.

В архиве по умолчанию представлена погода в Анадыре за последнюю неделю. Архивные данные за месяц целиком и за предыдущие месяцы, начиная с января 2011 года, Вы можете получить, выбрав интересующий диапазон дат из раскрывающегося списка и нажав кнопку "Ввод!".


*Определитесь, кто Вы:
робот инопланетянин человек

Внимание! Время в таблицах - всемирное. Для получения местного времени необходимо прибавить поправку, которая равна 12 ч.

Смотрите также архив погоды в соседних городах и на ближайших метеорологических станциях:

Погода в Анадыре АМС (Чукотка, Россия) (7 км)
Погода в Канчалане (Чукотка, Россия) (58 км)
Погода в Танюрере (Чукотка, Россия) (147 км)
Погода в Эньмувееме (Чукотка, Россия) (263 км)
Погода в Марково (Чукотка, Россия) (337 км)
Погода в Майской (Чукотка, Россия) (457 км)
Погода в Слаутном (Камчатский край, Россия) (504 км)
Погода в Паляваам-Глубокой (Чукотка, Россия) (505 км)
Погода в Илирнее (Чукотка, Россия) (513 км)
Погода в Комсомольской (Чукотка, Россия) (525 км)

Пояснения к столбцам:

Ветер - указаны скорость ветра в м/с - средняя за 10 мин, порывы в срок и между сроками (в фигурных скобках) и направление, откуда дует ветер: С - северный, СВ - северо-восточный, В - восточный, ЮВ - юго-восточный, Ю - южный, ЮЗ - юго-западный, З - западный, СЗ - северо-западный.
Видимость - горизонтальная дальность видимости в метрах или километрах. При видимости от 1 до 10 км при отсутствии осадков обычно наблюдается дымка, при ухудшении видимости до 1 км и менее - туман. В сухую погоду видимость может ухудшаться дымом, пылью или мглою.
Явления - указаны атмосферные явления, наблюдавшиеся в срок или в последний час перед сроком; фигурными скобками обозначены явления, наблюдавшиеся между сроками (за 1-3 часа до срока); квадратными скобками обозначены град или гололедные отложения с указанием их диаметра в мм.
Облачность - указаны через наклонную черту общая и нижняя облачность в баллах и высота нижней границы облаков в метрах; квадратными скобками обозначены формы облаков: Ci - перистые, Cs - перисто-слоистые, Cc - перисто-кучевые, Ac - высококучевые, As - высокослоистые, Sc - слоисто-кучевые, Ns - слоисто-дождевые, Cu - кучевые, Cb - кучево-дождевые. Подробнее классификацию облаков см. в Атласе облаков (PDF).
T - Температура воздуха - температура, измеренная на высоте 2 м над землей.
Td - Температура точки росы - температура, при понижении до которой содержащийся в воздухе водяной пар достигнет насыщения.
f - Относительная влажность воздуха - влажноcть воздуха, измеренная на высоте 2 м над землей.
Te - Эффективная температура - температура, которую ощущает одетый по сезону человек в тени. Характеристика душности погоды. При расчете учитывается влияние влажности воздуха и скорости ветра на теплоощущения человека.
Tes - Эффективная температура на солнце - температура, которую ощущает человек, с поправкой на солнечный нагрев. Характеристика знойности погоды. Зависит от высоты солнца над горизонтом, облачности и скорости ветра. Ночью, в пасмурную погоду, а также при ветре 12 м/с и более поправка равна нулю.
P - Атмосферное давление - приведенное к уровню моря атмосферное давление.
Po - Атмосферное давление - измеренное на уровне метеостанции атмосферное давление.
Tmin - Минимальная температура - минимум температуры воздуха на высоте 2 м над землей.
Tmax - Максимальная температура - максимум температуры воздуха на высоте 2 м над землей.
R - Количество осадков - Количество выпавших осадков за период времени, мм. При наведении курсора мыши на число - период времени, за который выпало указанное количество осадков.
R24 - Количество осадков - Количество выпавших осадков за 24 часа, мм.
S - Снежный покров - Высота снежного покрова, см. При наведении курсора мыши на число - состояние снежного покрова и степень покрытия местности в баллах.